Tracking 28790 objects as of 19-Apr-2024
HD Live streaming from Space Station
objects crossing your sky now

SL-16 R/B DEB

Track SL-16 R/B DEB now!
10-day predictions


NORAD ID: 39717
Int'l Code: 1992-093KH
Perigee: 823.4 km
Apogee: 969.1 km
Inclination: 70.7 °
Period: 102.8 minutes
Semi major axis: 7267 km
RCS: Unknown
Launch date: December 25, 1992
Source: Commonwealth of Independent States (former USSR) (CIS)
Launch site: TYURATAM MISSILE AND SPACE COMPLEX (TTMTR)

Note: This is SATELLITE DEBRIS
Your satellite tracking list
Your tracking list is empty




NASA's NSSDC Master Catalog

Two Line Element Set (TLE):
1 39717U 92093KH  24102.96115297  .00000694  00000-0  47154-3 0  9992
2 39717  70.6912 356.4433 0100215   7.6646 352.5969 14.01350514 22434
Source of the keplerian elements: AFSPC